GW1410 Weather Reports


time (UTC)temp
C
wind
direction
speed
KPH
gust
KPH
rain 1hr
cm
rain 24hr
cm
rain mn
cm
humidity
%
barometer
mb
20260504081541 16 200 4.8 27.4 0.33 0.33 0.33 80 1014.2
20260504044535 17 209 3.2 8.0 0.00 0.00 0.00 59 1012.6
20260504043017 17 188 4.8 14.5 0.00 0.00 0.00 59 1012.6
20260504041509 17 302 1.6 6.4 0.00 0.00 0.00 61 1012.6
20260504040044 17 151 1.6 9.7 0.00 0.00 0.00 61 1012.5
20260504040009 17 151 1.6 9.7 0.00 0.00 0.00 61 1012.5
20260504034541 16 198 3.2 11.3 0.00 0.00 0.00 61 1012.5
20260504033016 16 360 1.6 9.7 0.00 0.00 0.00 62 1012.5
20260504031516 16 174 1.6 6.4 0.00 0.00 0.00 62 1012.6
20260504030120 16 282 1.6 8.0 0.00 0.00 0.00 63 1012.5
20260504024559 16 163 1.6 4.8 0.00 0.00 0.00 63 1012.4
20260504023034 16 174 3.2 11.3 0.00 0.00 0.00 64 1012.3
20260504021533 16 298 1.6 8.0 0.00 0.00 0.00 65 1012.4
20260504020017 16 323 3.2 14.5 0.00 0.00 0.00 65 1012.2
20260504014516 16 298 1.6 6.4 0.00 0.00 0.00 64 1012.2
20260504013009 16 238 1.6 6.4 0.00 0.00 0.00 62 1012.3
20260504011505 16 109 1.6 8.0 0.00 0.00 0.00 61 1012.3
20260504010001 16 235 1.6 4.8 0.00 0.00 0.00 61 1012.4
20260504004604 16 199 0.0 6.4 0.00 0.00 0.00 63 1012.4
20260504003102 16 220 1.6 8.0 0.00 0.00 0.00 64 1012.5
20260504001607 16 188 0.0 3.2 0.00 0.00 0.00 65 1012.6
20260504000059 16 190 3.2 8.0 0.00 0.00 0.00 65 1012.6
20260503234557 17 290 4.8 9.7 0.00 0.00 0.00 65 1012.6
20260503233048 17 301 3.2 8.0 0.00 0.00 0.00 66 1012.5
20260503231552 17 320 1.6 12.9 0.00 0.00 0.00 66 1012.5
20260503230047 17 276 3.2 6.4 0.00 0.00 0.00 64 1012.6
20260503224546 17 284 1.6 4.8 0.00 0.00 0.00 63 1012.6
20260503223045 16 185 0.0 6.4 0.00 0.00 0.00 62 1012.7
20260503221545 17 189 0.0 8.0 0.00 0.00 0.00 63 1012.9
20260503220025 17 250 1.6 4.8 0.00 0.00 0.00 63 1013.0
20260503214524 17 306 3.2 14.5 0.00 0.00 0.00 63 1013.0
20260503213007 17 320 3.2 9.7 0.00 0.00 0.00 65 1013.1
20260503211504 17 283 1.6 9.7 0.00 0.00 0.00 66 1013.2
20260503210044 17 278 4.8 11.3 0.00 0.00 0.00 68 1013.3
20260503204553 17 276 4.8 16.1 0.00 0.00 0.00 70 1013.1
20260503203024 17 191 4.8 11.3 0.00 0.00 0.00 72 1013.1
20260503201524 17 309 4.8 11.3 0.00 0.00 0.00 72 1013.0
20260503200006 17 285 3.2 9.7 0.00 0.00 0.00 71 1013.2
20260503194505 17 269 1.6 8.0 0.00 0.00 0.00 70 1013.1
20260503193102 17 275 1.6 8.0 0.00 0.00 0.00 70 1012.9
20260503191550 17 236 1.6 6.4 0.00 0.00 0.00 69 1012.7
20260503190041 17 279 3.2 14.5 0.00 0.00 0.00 69 1012.5
20260503184524 17 294 1.6 8.0 0.00 0.00 0.00 70 1012.7
20260503183008 18 111 1.6 11.3 0.00 0.00 0.00 70 1012.6
20260503181504 17 233 3.2 14.5 0.00 0.00 0.00 70 1012.4
20260503180053 17 300 4.8 17.7 0.00 0.00 0.00 72 1012.1
20260503174541 17 291 1.6 12.9 0.00 0.00 0.00 74 1011.9
20260503173022 17 277 4.8 12.9 0.00 0.00 0.00 76 1011.7
20260503171532 17 280 4.8 17.7 0.00 0.00 0.00 78 1011.5
20260503140120 18 267 3.2 11.3 0.00 0.00 0.00 84 1009.8